User: anonymous   Login
Location: Montr�al
(45.5000°N, 73.5830°W)
Time: 04:50:30
(UTC-05:00)
Language:

Cosmos 1470 Rocket - Orbit

View from above orbital plane
View from above orbital plane
View from above satellite
View from above satellite

Ground track
Ground track

The orbit data is extracted from the following two-line orbital elements,

1 14148U 83061B   16341.87574201 +.00000118 +00000-0 +11567-4 0  9999
2 14148 082.5197 089.7084 0020237 244.9267 254.8613 14.83202191785208
Epoch (UTC): 06 December 2016 21:01:04
Eccentricity: 0.0020237
inclination: 82.5197°
perigee height: 605 km
apogee height: 633 km
right ascension of ascending node: 89.7084°
argument of perigee: 244.9267°
revolutions per day: 14.83202191
mean anomaly at epoch: 254.8613°
orbit number at epoch: 78520

The dashed part of the orbit path shows where the satellite is in the earth's shadow,  

DLR